[[{"header":{"parameterUnit":"m.s-1","parameterCategory":1,"la1":30.2991,"la2":30.254,"lo1":-89.0895,"lo2":-89.0444,"dy":0.0017,"dx":0.0017,"nx":28,"ny":28,"refTime":"2025-03-26T21:00:00:Z","depth":0,"parameterNumber":2,"parameterNumberName":"U-component_of_WINDS"},"data":[0,0,0,0,0,0,0,0,0,0,0,0,0,0,0,0,0,0,0,0,0,0,0,0,0,0,0,0,0,0,0,0,0,0,0,0,0,0,0,0,0,0,0,0,0,0,0,0,0,0,0,0,0,0,0,0,0,0,-3.8938,-3.8939,0,-3.9027,-3.9028,-3.9029,-3.9058,-3.9058,-3.9057,-3.9057,-3.9147,-3.915,-3.9153,0,0,0,0,0,0,0,0,0,0,0,0,0,-3.8794,-3.8796,-3.8938,-3.8939,-3.894,-3.9027,-3.9028,-3.9029,-3.9058,-3.9057,-3.9057,-3.9057,-3.9146,-3.9149,-3.9153,0,0,0,0,0,0,0,0,0,0,0,0,0,-3.8867,-3.8797,-3.8938,-3.8965,-3.8968,-3.9026,-3.9028,-3.9029,-3.9058,-3.9057,-3.9057,-3.9056,-3.9145,-3.9149,-3.9153,-3.919,0,0,-3.9166,-3.9168,0,0,0,0,0,0,0,0,-3.8863,-3.8872,-3.896,-3.8963,-3.8967,-3.9031,-3.901,-3.9083,-3.9058,-3.9024,-3.9057,-3.9056,-3.9109,-3.9116,-3.9134,-3.9195,-3.9198,-3.9166,-3.9169,-3.9171,-3.9172,0,0,0,0,0,0,0,-3.8858,-3.8869,-3.8973,-3.8961,-3.8965,-3.8973,-3.8983,-3.9024,-3.9068,-3.9027,-3.9029,-3.9039,-3.9111,-3.913,-3.9136,-3.92,-3.9166,-3.917,-3.9172,-3.9174,-3.9297,-3.9298,0,0,0,0,0,0,-3.8848,-3.8864,-3.897,-3.8976,-3.8912,-3.8976,-3.8987,-3.9011,-3.9068,-3.9076,-3.904,-3.904,-3.9123,-3.9131,-3.9139,-3.9187,-3.9171,-3.9174,-3.9177,-3.9297,-3.9298,-3.9298,0,0,0,0,0,0,-3.8845,-3.8857,-3.8967,-3.8921,-3.8935,-3.8979,-3.9006,-3.9013,-3.9032,-3.9078,-3.9086,-3.9051,-3.9123,-3.9134,-3.9178,-3.9191,-3.9176,-3.918,-3.9296,-3.9297,-3.9298,-3.9283,0,0,0,0,0,0,-3.8841,-3.8856,-3.887,-3.8921,-3.8937,-3.9003,-3.9007,-3.9015,-3.9039,-3.9041,-3.9091,-3.9098,-3.9123,-3.9172,-3.9182,-3.9196,-3.9183,-3.9295,-3.9296,-3.9298,-3.9282,-3.9283,-3.9284,0,0,0,0,0,-3.8835,-3.8862,-3.8871,-3.8883,-3.8956,-3.9004,-3.9013,-3.9042,-3.904,-3.9055,-3.9085,-3.9097,-3.9188,-3.9176,-3.9188,-3.9203,-3.9294,-3.9296,-3.9297,-3.9282,-3.9283,-3.9284,0,0,0,0,0,0,-3.881,-3.8869,-3.8879,-3.8923,-3.8958,-3.9009,-3.9028,-3.9042,-3.9078,-3.9078,-3.9112,-3.9123,-3.9165,-3.9189,-3.9174,-3.9243,-3.9242,-3.9246,-3.9225,-3.9227,-3.9228,-3.9221,-3.9187,0,0,0,0,0,-3.881,-3.8844,-3.8893,-3.8927,-3.8944,-3.8983,-3.9005,-3.9024,-3.9062,-3.9077,-3.911,-3.9146,-3.9183,-3.9207,-3.9243,-3.9287,-3.9298,-3.9303,-3.9304,-3.9305,-3.9308,-3.9333,-3.9336,-3.9304,-3.9304,-3.9304,0,0,-3.881,-3.8846,-3.8865,-3.8923,-3.8953,-3.8987,-3.8995,-3.9031,-3.9057,-3.9082,-3.9126,-3.9152,-3.9195,-3.9239,-3.926,-3.926,-3.9319,-3.9307,-3.9307,-3.931,-3.9335,-3.9338,-3.9341,-3.9305,-3.9305,-3.9305,0,0,-3.8826,-3.8857,-3.8889,-3.8919,-3.8964,-3.899,-3.8998,-3.9047,-3.9065,-3.911,-3.913,-3.9162,-3.9224,-3.9254,-3.9278,-3.9309,-3.9321,-3.932,-3.9324,-3.9348,-3.9351,-3.9353,-3.9364,-3.9367,-3.9323,-3.9323,-3.9323,0,-3.882,-3.8872,-3.8903,-3.8939,-3.8964,-3.8989,-3.9022,-3.905,-3.9104,-3.9121,-3.9121,-3.9202,-3.9233,-3.9284,-3.9292,-3.931,-3.932,-3.9313,-3.9348,-3.9351,-3.9353,-3.9364,-3.9368,-3.9322,-3.9322,-3.9322,-3.9322,0,-3.8862,-3.8898,-3.8919,-3.8972,-3.8999,-3.9033,-3.907,-3.9094,-3.9112,-3.9138,-3.9184,-3.9222,-3.9267,-3.9282,-3.9298,-3.9336,-3.9335,-3.9341,-3.934,-3.9355,-3.9366,-3.937,-3.9321,-3.9322,-3.9322,-3.9322,0,0,-3.8863,-3.8934,-3.8941,-3.8966,-3.9019,-3.9048,-3.9083,-3.9128,-3.9149,-3.9186,-3.9217,-3.9271,-3.9277,-3.9304,-3.9325,-3.9347,-3.9369,-3.935,-3.9352,-3.9352,-3.9413,-3.9408,-3.9412,-3.9378,-3.9379,-3.938,-3.941,0,-3.8886,-3.895,-3.898,-3.9031,-3.9066,-3.9092,-3.9123,-3.9159,-3.9185,-3.9219,-3.9248,-3.9285,-3.9291,-3.9307,-3.933,-3.9361,-3.9381,-3.936,-3.9407,-3.9409,-3.9394,-3.9418,-3.9411,-3.9437,-3.9414,-3.9415,-3.9415,0,-3.8921,-3.8959,-3.9013,-3.9063,-3.9079,-3.9106,-3.9151,-3.9182,-3.9224,-3.9242,-3.9273,-3.9293,-3.9333,-3.933,-3.9385,-3.937,-3.9391,-3.941,-3.9412,-3.9416,-3.9412,-3.9422,-3.9446,-3.945,-3.9422,-3.9422,-3.9421,0,-3.8916,-3.8981,-3.9022,-3.9043,-3.9102,-3.9121,-3.9147,-3.9188,-3.9214,-3.9253,-3.927,-3.9313,-3.9336,-3.9369,-3.9401,-3.9396,-3.9453,-3.9453,-3.9469,-3.9468,-3.9478,-3.9477,-3.9505,-3.9494,-3.9494,-3.9494,-3.9494,0,-3.8937,-3.897,-3.9021,-3.9046,-3.9083,-3.9118,-3.9155,-3.9182,-3.9219,-3.9251,-3.9277,-3.9306,-3.9347,-3.9381,-3.9407,-3.9449,-3.9459,-3.9475,-3.9481,-3.9472,-3.947,-3.9485,-3.9484,-3.9495,-3.9494,-3.9494,-3.9494,0,-3.8937,-3.8973,-3.902,-3.9073,-3.9087,-3.9112,-3.9158,-3.9184,-3.9212,-3.9252,-3.9263,-3.9307,-3.935,-3.9385,-3.9441,-3.9458,-3.9501,-3.9509,-3.9487,-3.949,-3.9503,-3.9501,-3.9542,-3.9549,-3.9533,-3.9534,-3.9534,0,-3.8948,-3.8974,-3.903,-3.9053,-3.9078,-3.9115,-3.9142,-3.9178,-3.9204,-3.9255,-3.9275,-3.9319,-3.9356,-3.9423,-3.946,-3.9503,-3.9512,-3.9524,-3.9518,-3.9509,-3.9512,-3.9509,-3.9512,-3.9523,-3.9523,-3.9523,-3.9523,0,-3.8964,-3.8981,-3.9018,-3.9061,-3.9092,-3.9128,-3.9165,-3.9183,-3.9226,-3.9255,-3.9298,-3.9327,-3.9385,-3.9428,-3.9476,-3.9503,-3.952,-3.9525,-3.9531,-3.9521,-3.9507,-3.9514,-3.9487,-3.9523,-3.9523,-3.9523,-3.9523,-3.9523,-3.8969,-3.8994,-3.9037,-3.9078,-3.911,-3.9144,-3.9171,-3.9203,-3.924,-3.9289,-3.9309,-3.9354,-3.9397,-3.9463,-3.949,-3.9526,-3.9528,-3.9537,-3.9539,-3.954,-3.9538,-3.9502,-3.9535,-3.9535,-3.9535,-3.9535,-3.9535,0,-3.8986,-3.9016,-3.9053,-3.9104,-3.9136,-3.9151,-3.9193,-3.9219,-3.9258,-3.9296,-3.9333,-3.9384,-3.9427,-3.9468,-3.9514,-3.9535,-3.9544,-3.9545,-3.9544,-3.955,-3.9534,-3.9524,-3.9537,-3.9537,-3.9537,-3.9537,-3.9537,-3.9537,-3.8998,-3.904,-3.9062,-3.912,-3.915,-3.9194,-3.9217,-3.9249,-3.928,-3.9336,-3.9372,-3.9399,-3.9439,-3.9488,-3.9528,-3.954,-3.9555,-3.9554,-3.9567,-3.9551,-3.9551,-3.955,-3.9541,-3.9557,-3.9557,-3.958,-3.958,-3.958]},{"header":{"parameterUnit":"m.s-1","parameterCategory":1,"la1":30.2991,"la2":30.254,"lo1":-89.0895,"lo2":-89.0444,"dy":0.0017,"dx":0.0017,"nx":28,"ny":28,"refTime":"2025-03-26T21:00:00:Z","depth":0,"parameterNumber":3,"parameterNumberName":"V-component_of_WINDS"},"data":[0,0,0,0,0,0,0,0,0,0,0,0,0,0,0,0,0,0,0,0,0,0,0,0,0,0,0,0,0,0,0,0,0,0,0,0,0,0,0,0,0,0,0,0,0,0,0,0,0,0,0,0,0,0,0,0,0,0,4.1256,4.1256,0,4.1295,4.1296,4.1296,4.1356,4.1357,4.1358,4.1359,4.1398,4.1398,4.1398,0,0,0,0,0,0,0,0,0,0,0,0,0,4.1233,4.1233,4.1256,4.1256,4.1257,4.1295,4.1296,4.1296,4.1355,4.1357,4.1358,4.1359,4.1398,4.1398,4.1398,0,0,0,0,0,0,0,0,0,0,0,0,0,4.1254,4.1233,4.1255,4.1291,4.1294,4.1295,4.1296,4.1296,4.1355,4.1357,4.1358,4.136,4.1398,4.1398,4.1398,4.1367,0,0,4.1398,4.1398,0,0,0,0,0,0,0,0,4.1253,4.1255,4.1285,4.1288,4.1292,4.1322,4.1302,4.132,4.1355,4.1332,4.1359,4.136,4.1371,4.1374,4.1377,4.1369,4.1371,4.1398,4.1398,4.1398,4.1398,0,0,0,0,0,0,0,4.1251,4.1254,4.1271,4.1285,4.129,4.1305,4.131,4.1306,4.1342,4.1334,4.1338,4.1342,4.1373,4.1377,4.1379,4.1371,4.1398,4.1398,4.1398,4.1398,4.1344,4.1343,0,0,0,0,0,0,4.1245,4.1252,4.127,4.1272,4.1276,4.1304,4.131,4.1311,4.1342,4.1349,4.1341,4.1345,4.1376,4.1379,4.138,4.135,4.1398,4.1398,4.1398,4.1346,4.1344,4.1342,0,0,0,0,0,0,4.1244,4.1246,4.1268,4.1264,4.1268,4.1303,4.1304,4.1311,4.1315,4.1348,4.1355,4.1338,4.1378,4.138,4.1371,4.1352,4.1398,4.1398,4.1348,4.1345,4.1343,4.1286,0,0,0,0,0,0,4.1243,4.1245,4.1233,4.1263,4.1268,4.1258,4.1303,4.131,4.1315,4.1321,4.1347,4.1353,4.1379,4.1371,4.1371,4.1353,4.1399,4.1349,4.1347,4.1344,4.129,4.1282,4.1276,0,0,0,0,0,4.1242,4.1214,4.1232,4.1234,4.1253,4.1256,4.1259,4.1291,4.1313,4.1302,4.1324,4.1352,4.1354,4.1369,4.137,4.1352,4.1351,4.1347,4.1344,4.1293,4.1284,4.1276,0,0,0,0,0,0,4.1179,4.1218,4.1239,4.1219,4.1234,4.1266,4.1253,4.1279,4.1287,4.1292,4.133,4.1336,4.1323,4.1336,4.1353,4.1326,4.1357,4.1354,4.1318,4.1309,4.1302,4.13,4.1399,0,0,0,0,0,4.1163,4.1162,4.1197,4.1176,4.1183,4.1217,4.1219,4.1243,4.1259,4.1266,4.1287,4.1302,4.1307,4.1308,4.1314,4.1292,4.1301,4.128,4.1273,4.1267,4.1264,4.1258,4.125,4.1331,4.1331,4.1331,0,0,4.113,4.1151,4.1148,4.1164,4.1179,4.1178,4.1221,4.1218,4.1218,4.1265,4.1259,4.1275,4.1294,4.128,4.1275,4.1291,4.1244,4.1263,4.1258,4.1258,4.1253,4.1246,4.1239,4.1329,4.1329,4.133,0,0,4.1069,4.1084,4.1071,4.1086,4.1108,4.1131,4.1128,4.1157,4.117,4.1165,4.1201,4.1202,4.1208,4.1222,4.123,4.1179,4.1206,4.118,4.1143,4.1136,4.113,4.1124,4.1109,4.1103,4.1177,4.1176,4.1176,0,4.1025,4.1025,4.1061,4.1057,4.1064,4.1108,4.1096,4.1108,4.113,4.1135,4.1153,4.1165,4.1181,4.1172,4.1161,4.1164,4.1164,4.1177,4.1128,4.1123,4.1118,4.1104,4.1098,4.1173,4.1174,4.1174,4.1174,0,4.0972,4.0972,4.0959,4.0981,4.0987,4.0979,4.1014,4.1016,4.104,4.1062,4.1058,4.1079,4.1092,4.1092,4.1113,4.1087,4.1097,4.1121,4.1153,4.1107,4.1095,4.1089,4.1169,4.117,4.1171,4.1172,0,0,4.0871,4.0916,4.0911,4.0924,4.0953,4.0954,4.0949,4.0963,4.0966,4.098,4.0979,4.0985,4.1009,4.1017,4.1042,4.1036,4.0999,4.1061,4.1062,4.1051,4.0975,4.0958,4.0951,4.1017,4.1016,4.1015,4.0974,0,4.0818,4.0812,4.0846,4.0832,4.0835,4.0878,4.0875,4.0893,4.0914,4.092,4.0943,4.0948,4.0977,4.0984,4.098,4.1004,4.0984,4.1007,4.1017,4.1017,4.1013,4.0945,4.0926,4.0886,4.0969,4.0969,4.0968,0,4.0755,4.0769,4.0756,4.079,4.0792,4.0788,4.0806,4.081,4.0833,4.0849,4.0861,4.0891,4.089,4.092,4.0921,4.0936,4.0942,4.0955,4.0955,4.0958,4.0991,4.0948,4.0874,4.0869,4.096,4.0961,4.0961,0,4.0686,4.0701,4.0697,4.0706,4.0745,4.0742,4.0758,4.0782,4.079,4.0805,4.0811,4.0826,4.0834,4.0845,4.0878,4.0897,4.0877,4.0909,4.0892,4.0891,4.0886,4.0886,4.0814,4.0887,4.0887,4.0887,4.0887,0,4.0625,4.0615,4.0667,4.0664,4.0657,4.0696,4.0688,4.0708,4.073,4.0733,4.0771,4.0773,4.0816,4.0824,4.0849,4.0848,4.0851,4.0865,4.0873,4.0863,4.0861,4.0868,4.0873,4.0886,4.0886,4.0886,4.0886,0,4.0547,4.0581,4.0579,4.0617,4.0627,4.062,4.0653,4.0653,4.0678,4.0681,4.0684,4.0723,4.0734,4.0769,4.0787,4.0805,4.0797,4.081,4.079,4.0795,4.0777,4.0779,4.0708,4.0702,4.0777,4.0776,4.0775,0,4.0506,4.05,4.0539,4.0545,4.056,4.0567,4.0577,4.0616,4.0624,4.0652,4.0649,4.0664,4.0678,4.0694,4.0724,4.074,4.0754,4.0728,4.0757,4.0748,4.0757,4.0758,4.0759,4.0722,4.0721,4.072,4.072,0,4.0431,4.0449,4.0461,4.048,4.049,4.0506,4.0524,4.0527,4.0571,4.0579,4.0592,4.0602,4.0624,4.0639,4.066,4.0678,4.0707,4.0711,4.0708,4.0699,4.0689,4.0697,4.0776,4.0712,4.0713,4.0714,4.0714,4.0714,4.0372,4.0371,4.04,4.0412,4.0431,4.0448,4.0452,4.0478,4.049,4.0511,4.0534,4.0545,4.0572,4.0604,4.062,4.063,4.0645,4.064,4.0639,4.0638,4.0635,4.0686,4.0633,4.0634,4.0634,4.0634,4.0634,0,4.0302,4.0323,4.0335,4.0361,4.0372,4.0399,4.0422,4.043,4.044,4.0462,4.0476,4.0493,4.0509,4.0541,4.056,4.0562,4.0577,4.0566,4.0567,4.0572,4.0619,4.062,4.0555,4.0555,4.0555,4.0555,4.0555,4.0555,4.0267,4.0267,4.0289,4.0301,4.0323,4.0335,4.0346,4.0363,4.0382,4.04,4.0413,4.0435,4.0463,4.0485,4.0501,4.0511,4.0517,4.0503,4.0517,4.056,4.0568,4.0575,4.0577,4.0503,4.0503,4.0469,4.0469,4.0468]}]]